Theta_e
308 309 308 309 308 308 308 308 310 307 308 303 304 307 306 307 307 308 308 308 308 309 308 308 308 306 305 304 302 303 297 305 306 302 288 284 296 300 302 305 307 306 306 286
306 307 307 307 308 308 308 309 309 305 304 306 306 305 307 306 307 307 308 308 307 306 308 308 303 302 303 302 304 304 300 303 301 300 293 289 293 285 285 290 299 303 307 284
304 304 304 305 307 307 308 308 305 300 298 298 301 306 307 307 306 307 307 307 306 306 305 306 306 305 304 304 304 307 305 304 303 306 302 292 286 280 281 287 299 293 281 278
299 300 301 302 303 304 307 308 306 306 303 298 300 303 304 306 306 306 306 305 306 306 307 306 307 306 305 302 303 304 304 301 296 285 284 281 280 278 278 279 279 285 277 277
294 294 294 296 297 299 301 305 305 305 303 305 301 302 304 305 305 305 305 305 304 304 306 305 306 304 301 294 295 301 298 301 296 284 281 280 278 278 276 275 276 277 277 276
289 289 289 290 291 292 297 301 303 304 305 303 304 292 290 290 292 302 291 294 301 304 293 287 284 283 282 281 283 284 291 294 296 291 281 284 282 277 276 276 276 277 276 276
287 287 288 288 288 290 293 295 295 297 299 286 282 279 283 284 287 292 289 288 291 288 287 287 285 284 283 282 281 281 283 289 294 283 284 290 276 277 277 275 274 275 276 276
286 287 288 289 291 292 293 292 292 294 277 275 276 275 280 282 283 285 288 285 285 288 289 292 289 290 289 283 281 280 280 284 284 286 277 276 277 276 276 276 273 273 274 274
287 289 289 289 292 290 291 291 292 291 280 273 273 273 277 276 278 282 286 285 285 287 291 294 290 283 283 281 280 280 279 280 284 282 282 281 276 276 276 276 275 272 272 272
287 289 290 290 291 291 290 290 290 287 276 274 274 273 272 275 275 275 281 279 281 284 289 286 283 280 279 276 276 277 276 276 277 279 275 275 274 274 275 276 274 271 271 271
287 286 287 289 289 288 289 285 285 282 276 274 274 274 274 274 274 272 278 279 279 279 281 282 280 279 278 276 274 274 272 273 275 276 276 277 273 274 274 270 270 270 270 270
285 285 284 283 284 283 284 281 281 280 278 275 275 275 276 277 276 274 278 278 277 278 279 279 279 277 276 274 272 271 272 269 271 270 271 271 272 272 270 270 269 269 269 269
283 284 283 287 285 283 284 283 281 280 278 277 276 276 277 278 278 277 277 278 277 279 278 276 269 270 268 265 266 263 266 268 265 266 267 271 269 270 270 269 269 269 269 268
283 283 282 283 283 283 284 283 281 281 279 275 277 277 277 277 278 278 278 277 277 277 277 272 266 269 271 265 265 266 266 267 259 261 265 270 271 271 271 269 269 269 269 268
285 284 283 283 283 284 284 283 281 281 281 276 278 279 278 278 278 278 278 278 277 277 275 268 265 271 268 265 264 260 271 264 262 265 269 269 270 270 270 269 269 269 268 268
285 285 284 284 284 283 283 283 282 282 282 280 275 279 280 280 279 279 279 278 277 276 275 271 274 273 270 262 262 272 272 272 271 270 271 270 270 270 270 269 269 269 268 268
285 285 284 285 285 285 284 282 282 282 281 281 277 278 279 279 279 279 279 278 277 276 275 274 275 273 273 259 264 275 274 273 272 271 270 270 270 270 270 269 269 268 268 268
285 285 285 285 285 285 284 283 283 282 282 281 269 273 277 276 276 277 277 277 277 276 274 274 272 273 272 266 274 275 274 273 272 271 271 270 270 270 270 269 269 269 268 268
286 285 285 285 285 284 283 283 283 284 282 277 272 267 271 274 274 274 276 277 273 274 271 272 272 270 273 275 276 275 274 273 272 271 271 271 270 270 270 269 269 268 268 268
287 286 285 285 284 283 283 283 284 283 279 276 271 270 268 271 272 273 273 275 270 269 269 272 268 268 277 277 277 276 274 273 272 271 271 271 270 270 269 269 269 268 268 267
287 286 286 285 284 283 285 281 277 276 272 273 271 270 269 271 269 268 270 268 268 270 271 270 266 269 277 279 278 276 275 274 273 272 271 271 270 270 269 269 269 269 268 268
286 287 286 285 285 286 279 270 275 271 270 273 271 271 271 271 271 270 271 268 267 272 270 268 270 275 279 280 279 278 276 274 273 272 272 271 271 270 270 269 269 269 268 268
287 287 286 284 281 277 274 273 274 272 274 273 272 270 271 272 272 270 267 268 268 269 267 274 274 279 280 280 279 278 277 276 274 273 272 272 271 271 270 270 269 269 268 268
287 286 278 274 273 270 270 271 274 277 276 274 271 270 271 271 270 268 270 268 267 268 274 277 277 281 281 280 279 278 277 277 276 275 273 272 272 271 271 270 269 269 269 268
285 285 275 274 280 280 279 278 277 276 274 272 270 271 270 269 266 270 271 274 273 272 277 277 281 282 281 280 279 279 278 277 277 276 275 274 273 272 271 271 270 269 269 268
284 283 278 280 278 280 279 278 277 275 274 272 271 268 267 269 268 276 273 274 275 278 277 281 281 281 280 279 279 279 278 278 277 276 276 275 274 273 272 272 271 270 269 269
284 283 282 281 280 280 280 279 278 276 276 273 272 275 274 272 274 278 276 280 281 281 280 280 280 280 279 279 278 278 278 278 278 277 276 276 275 275 274 273 272 271 270 270
Wind_Speed
24 23 22 21 20 20 20 21 5 9 18 6 6 9 6 8 5 10 7 6 10 9 6 6 10 10 9 11 8 5 7 3 4 8 1 2 2 2 6 3 3 3 2 3
24 23 22 22 19 17 17 9 12 13 21 5 5 3 5 7 6 9 6 7 8 8 6 7 8 6 7 14 9 6 6 3 2 4 4 5 5 5 5 4 3 5 3 3
23 22 23 20 17 17 19 10 3 5 15 7 3 5 8 9 15 17 11 7 11 6 6 9 4 6 3 9 8 10 10 6 7 9 2 4 4 7 6 3 3 3 4 5
21 21 20 20 20 19 20 10 7 9 5 6 14 9 5 7 5 12 13 6 19 11 9 7 13 15 15 5 7 4 6 5 5 10 7 7 10 8 16 6 5 1 4 6
22 22 21 21 22 20 23 13 4 6 5 6 10 12 13 21 20 9 9 12 10 13 13 13 10 2 1 4 5 4 1 4 5 5 16 20 19 11 9 7 5 9 8 8
25 25 23 21 21 19 8 13 20 16 11 8 7 4 9 10 13 3 15 10 10 10 6 15 20 31 23 12 6 8 6 2 1 5 13 4 8 8 9 7 9 3 4 3
25 22 20 21 19 16 13 13 15 6 5 6 4 8 9 7 11 6 9 18 6 7 18 27 23 28 26 26 18 17 5 3 3 3 3 2 1 5 12 11 9 8 5 6
27 22 19 20 18 14 8 8 5 4 4 10 8 17 9 13 14 6 4 11 9 8 5 1 3 1 3 9 11 15 13 3 5 4 4 4 2 3 2 2 3 6 5 5
29 26 20 18 17 11 9 9 5 1 8 12 12 6 9 4 6 9 7 11 15 13 2 1 3 4 4 5 10 9 13 13 5 3 4 2 3 6 12 3 3 9 11 7
30 30 28 24 18 11 9 8 5 13 15 15 15 6 5 9 5 3 5 14 14 14 3 4 5 3 3 5 6 8 6 5 8 6 4 2 3 12 9 1 1 13 11 11
27 33 37 34 30 28 28 32 23 41 24 20 20 19 13 10 8 2 9 5 7 7 5 3 3 4 3 4 3 3 4 4 3 3 3 1 10 2 1 1 10 15 10 8
27 30 36 42 39 44 45 54 44 46 41 18 30 27 22 18 13 6 11 3 4 6 3 3 3 4 3 3 2 5 3 1 1 2 3 2 0 4 6 7 13 13 12 17
30 30 33 23 20 16 19 19 16 17 18 32 39 32 31 24 22 19 6 7 8 7 9 5 2 7 3 3 2 2 7 7 2 4 4 5 17 12 9 18 21 16 16 19
29 32 39 32 32 26 18 25 31 28 18 7 19 31 38 33 30 27 21 19 19 22 19 10 4 4 6 1 3 3 2 6 1 4 6 6 1 8 11 23 21 18 21 23
18 23 26 27 28 28 30 32 37 26 21 7 7 24 28 33 36 35 25 30 33 23 9 6 2 4 4 3 3 2 1 4 2 4 3 7 15 19 22 21 23 23 24 27
23 16 11 9 5 4 4 7 21 24 15 6 3 8 19 20 23 29 34 32 36 18 7 5 6 5 3 3 1 5 6 8 10 7 16 23 25 24 18 24 27 25 25 26
24 26 29 34 29 23 15 7 6 5 3 4 4 4 11 20 13 15 14 18 18 11 6 7 4 5 4 3 0 10 13 15 14 15 16 17 12 18 26 25 25 23 24 23
5 5 8 10 16 21 30 33 19 5 6 8 3 5 5 23 10 8 14 9 8 12 5 4 5 1 3 2 9 16 16 17 15 7 15 21 25 27 25 24 25 27 27 26
4 5 7 7 8 7 10 13 16 25 13 7 6 2 3 17 12 8 6 7 4 6 5 4 4 2 2 8 19 19 15 13 18 19 20 21 23 25 25 24 25 26 28 26
8 8 5 5 8 6 7 7 6 10 12 9 6 8 3 12 10 11 8 6 2 2 2 7 3 3 7 10 13 16 16 14 17 22 25 21 24 25 27 26 25 26 27 27
4 4 5 5 8 7 8 8 11 11 7 10 9 8 6 9 3 3 7 1 2 3 3 2 2 3 5 15 16 16 15 16 16 18 21 22 23 25 26 27 25 25 25 25
6 4 5 8 9 12 9 3 6 7 1 11 9 10 7 6 5 4 5 1 3 1 6 3 4 3 13 25 22 21 18 17 18 17 20 21 22 22 24 26 26 24 24 24
6 4 6 9 12 10 7 7 5 4 10 7 19 11 6 4 3 4 3 5 2 4 3 2 3 11 26 28 28 24 22 19 19 20 20 21 22 22 22 25 23 23 24 23
7 8 8 4 5 0 4 4 5 9 11 21 21 5 3 4 3 2 3 2 1 4 3 3 3 24 31 31 30 27 26 22 22 21 21 22 23 23 23 22 22 23 24 22
7 7 4 2 2 4 7 9 9 11 15 15 8 5 3 3 2 1 2 6 4 3 3 3 25 31 32 32 30 28 26 24 23 23 24 23 23 23 24 21 21 22 23 22
8 9 5 0 2 3 5 9 11 17 18 7 3 2 3 3 0 4 1 2 4 5 8 31 33 33 35 33 31 27 25 24 24 23 23 23 23 23 24 23 21 22 21 21
6 4 3 1 2 4 9 12 14 18 10 4 3 4 3 5 3 3 3 2 8 30 37 36 35 34 36 33 28 25 25 26 25 24 22 23 22 23 23 23 21 22 21 20
Wind_Direction
300 299 300 300 300 298 288 276 256 230 203 178 215 221 196 225 249 245 239 237 242 245 220 238 216 214 218 177 154 195 215 249 231 228 259 192 99 88 185 208 228 239 298 121
304 303 298 295 292 291 281 253 252 227 200 235 230 239 245 241 226 228 224 227 223 202 233 239 200 212 240 191 171 190 186 216 313 321 9 3 70 30 353 299 258 227 293 119
312 307 302 296 290 282 274 264 255 195 212 253 235 230 251 238 220 242 233 240 224 210 238 215 240 231 261 219 218 173 165 194 204 253 210 95 58 19 322 251 254 21 38 89
320 314 306 297 284 277 273 245 244 225 227 230 229 240 258 235 227 225 207 234 220 219 240 235 237 249 246 209 220 212 186 224 148 38 77 85 90 63 43 70 333 66 92 88
321 313 308 304 300 284 272 267 258 233 268 273 223 222 227 245 245 211 230 231 209 217 245 267 265 246 214 73 328 198 178 199 143 92 93 91 72 45 56 48 45 78 88 73
324 323 321 315 308 307 287 276 279 285 278 288 279 4 327 2 349 319 36 351 290 245 21 85 86 83 73 67 41 348 354 35 146 129 150 158 52 22 73 65 38 32 62 30
342 341 335 322 321 312 297 285 295 297 309 41 24 349 334 330 339 309 15 16 38 4 107 98 78 78 70 55 40 31 353 1 348 99 179 200 126 41 89 87 44 24 38 23
0 355 352 349 343 339 334 318 294 297 87 332 358 344 345 326 341 342 52 24 358 331 225 203 151 195 83 39 41 25 17 5 64 120 56 128 122 33 12 356 89 8 346 354
13 18 9 3 4 22 16 0 345 150 106 5 321 318 343 344 334 345 12 344 8 7 247 250 21 53 344 0 347 17 18 34 70 56 89 120 39 331 327 142 208 18 351 357
31 35 36 33 31 27 16 43 68 92 98 27 28 19 311 340 333 279 336 334 350 9 42 57 37 66 42 30 22 347 355 5 41 35 95 73 351 322 339 234 337 330 324 322
47 45 47 47 53 76 77 77 95 96 94 58 47 36 25 356 357 1 321 341 9 359 57 71 50 60 61 86 21 19 34 347 21 5 85 62 354 335 2 256 341 329 315 304
62 68 66 64 76 82 87 83 82 83 80 69 53 43 29 19 7 322 8 70 345 4 85 63 93 71 56 16 41 353 37 114 234 94 216 149 304 214 112 13 342 329 293 305
50 54 58 68 69 54 63 83 62 74 69 54 44 38 46 45 42 38 12 25 16 47 64 99 109 77 71 71 320 17 339 13 89 43 293 266 307 181 238 340 335 324 311 307
64 77 77 74 64 64 81 63 81 85 74 79 42 58 55 56 55 57 61 70 79 76 68 71 76 96 38 68 162 105 233 343 336 273 285 321 97 201 297 316 316 310 314 314
78 83 84 76 76 66 58 63 73 78 97 121 95 59 58 62 62 64 69 70 70 64 51 50 59 77 86 34 80 350 250 205 112 245 236 276 279 307 316 314 320 317 312 309
74 82 78 63 29 45 33 67 65 82 74 82 48 49 34 47 55 56 56 55 56 61 60 76 72 48 85 85 129 248 254 260 257 262 296 293 293 301 309 311 315 312 307 306
85 80 80 70 68 70 71 68 41 37 69 89 73 14 2 10 24 32 34 42 44 45 62 48 53 37 47 85 78 317 332 322 308 294 288 293 295 302 309 309 312 309 305 303
70 29 36 52 62 66 64 60 51 57 74 67 61 321 9 11 358 10 12 18 34 36 55 43 30 27 39 35 303 325 321 315 306 275 296 293 302 305 311 314 315 315 314 317
350 311 339 2 20 40 49 58 56 50 62 83 64 45 295 348 13 351 352 14 51 24 51 28 4 313 45 270 306 315 322 305 303 303 295 296 298 304 309 312 314 312 314 315
327 346 356 21 356 36 46 41 31 33 39 54 65 348 294 342 340 2 0 28 45 52 305 334 63 259 247 302 325 328 324 312 304 300 303 310 305 308 312 312 313 312 314 317
355 18 35 38 25 35 40 40 35 2 40 14 3 357 321 350 1 316 19 273 351 57 286 94 326 301 266 340 329 331 324 314 304 299 301 303 303 304 308 311 312 313 314 315
76 89 51 19 30 35 55 5 4 39 344 349 350 335 316 316 324 327 348 76 27 282 333 65 334 250 326 338 337 337 327 319 312 308 306 307 302 304 304 308 312 312 311 314
59 51 49 18 14 36 51 347 321 342 346 338 336 327 314 310 308 290 4 45 254 312 35 265 241 310 329 336 333 332 331 324 319 318 313 310 309 308 307 308 313 310 309 314
52 43 29 64 0 278 194 203 235 283 290 314 322 294 304 312 321 317 45 233 44 27 21 267 255 320 332 331 337 331 329 325 321 320 316 313 312 311 312 310 310 310 312 314
70 54 61 56 317 276 282 297 300 323 316 319 308 291 292 301 341 27 335 6 339 203 249 249 319 319 318 328 333 332 326 323 319 320 317 314 313 312 313 314 310 311 312 311
59 55 77 228 278 298 335 343 340 346 339 335 329 325 23 349 168 16 201 107 255 290 279 310 314 313 320 325 326 325 328 323 318 315 314 314 314 311 311 314 315 313 313 313
69 83 66 1 325 333 352 346 345 345 348 0 344 24 262 292 334 325 197 236 313 313 309 310 311 312 317 322 321 321 318 324 324 318 314 313 317 313 310 312 319 315 315 313